Location: Carrières
(48.9495°N, 2.0407°E)
Time: 02:06:11
(UTC+00:00)

Transit 2A - Pass Details

Date: 25 April 2024
Orbit: 594 x 957 km, 66.7° (Epoch: 19 May)

Event Time Altitude Azimuth Distance (km) Brightness Sun altitude
Rises 08:47:15 0° 300° (WNW) 3,017 8.6 38.4°
Reaches altitude 10° 08:51:30 10° 337° (NNW) 2,197 8.1 39.0°
Maximum altitude 08:52:52 11° 353° (N) 2,160 8.2 39.2°
Drops below altitude 10° 08:54:16 10° 9° (N) 2,262 8.4 39.4°
Sets 08:58:54 0° 45° (NE) 3,303 9.4 40.1°
